Location: *
(13.2257°S, 48.7193°W)
Time: 12:46:16
(UTC+00:00)

Meteor 1-21 Rocket - Pass Details

Date: 13 February 2026
Orbit: 832 x 905 km, 81.2° (Epoch: 11 March)

Event Time Altitude Azimuth Distance (km) Brightness Sun altitude
Rises 08:36:27 0° 346° (NNW) 3,403 7.1 -9.4°
Reaches altitude 10° 08:38:55 10° 342° (NNW) 2,463 6.3 -8.8°
Maximum altitude 08:44:22 58° 264° (W) 979 4.3 -7.5°
Drops below altitude 10° 08:49:50 10° 185° (S) 2,454 6.8 -6.2°
Sets 08:52:17 0° 181° (S) 3,390 7.5 -5.7°
